Regional Weather Roundup
Issued by NWS

Home | Current Version | Previous Version | Graphics & Text | Print | Product List | Glossary On
Versions: 1 2 3 4 5 6 7 8 9 10 11 12 13 14 15 16 17 18 19 20 21 22 23 24 25 26 27 28 29 30 31 32 33 34 35 36 37 38 39 40 41 42 43 44 45 46 47 48 49 50
020
ASUS45 KPSR 102110
RWRAZ

ARIZONA HOURLY REGIONAL WEATHER ROUNDUP
NATIONAL WEATHER SERVICE PHOENIX AZ
200 PM MST SAT DEC 10 2016

NOTE: FAIR INDICATES FEW OR NO CLOUDS BELOW 12,000 FEET WITH NO
SIGNIFICANT WEATHER AND/OR OBSTRUCTIONS TO VISIBILITY.

AZZ001>003-036-102200-
NORTHWEST ARIZONA

CITY           SKY/WX    TMP DP  RH WIND       PRES   REMARKS
BULLHEAD CITY  MOSUNNY   64  25  22 CALM      30.06F
KINGMAN        MOSUNNY   62  36  37 SW18      30.07F
$$

AZZ004>008-015-016-018-102200-
NORTH CENTRAL ARIZONA

CITY           SKY/WX    TMP DP  RH WIND       PRES   REMARKS
GRAND CANYON   SUNNY     53  34  48 SW12G26   30.11F
WILLIAMS       SUNNY     52  32  46 SW15G22   30.13F
PRESCOTT       SUNNY     60  33  36 SW14G22   30.13F
FLAGSTAFF      SUNNY     50  30  46 SW16G24   30.14F
PAYSON         SUNNY     55  32  41 CALM      30.17F
PAGE           SUNNY     49  22  34 SE7       30.05F
$$

AZZ009>014-017-102200-
NORTHEAST ARIZONA

CITY           SKY/WX    TMP DP  RH WIND       PRES   REMARKS
WINSLOW        SUNNY     63  26  24 CALM      30.04F
SAINT JOHNS    SUNNY     66  12  12 W16G24    30.08F
WINDOW ROCK    MOSUNNY   58  16  19 SW14      30.10F
SHOW LOW       SUNNY     55  19  24 S20       30.15F
$$

AZZ023-102200-
GREATER PHOENIX AREA

CITY           SKY/WX    TMP DP  RH WIND       PRES   REMARKS
PHOENIX        PTSUNNY   70  37  29 VRB5      30.05F
BUCKEYE        SUNNY     66  39  37 SW3       30.08F
GLENDALE       MOSUNNY   70  37  30 CALM      30.08F
LUKE AFB       SUNNY     68  37  31 CALM      30.05F
DEER VALLEY    SUNNY     67  38  34 VRB5      30.06F
SCOTTSDALE     SUNNY     69  37  30 VRB5      30.07F
MESA-FALCON    SUNNY    N/A N/A N/A S8        30.03F
MESA-GATEWAY   SUNNY     66  36  32 W5        30.06F
$$

AZZ027-028-102200-
SOUTHWEST MARICOPA COUNTY AND PINAL COUNTY

CITY           SKY/WX    TMP DP  RH WIND       PRES   REMARKS
CASA GRANDE    NOT AVBL
GILA BEND      FAIR      70  37  30 W5        30.05F
$$

AZZ503-504-507>509-102200-
SOUTHEAST ARIZONA

CITY           SKY/WX    TMP DP  RH WIND       PRES   REMARKS
TUCSON         SUNNY     73  32  22 VRB3      30.08F
DAVIS-MONTHAN  SUNNY     72  32  23 NW3       30.07F
RYAN FIELD     SUNNY     72  34  25 CALM      30.08F
NOGALES        SUNNY     76  22  13 SW12G21   30.11F
SIERRA VISTA   SUNNY     73  18  12 SW14G25   30.14F
DOUGLAS        SUNNY     69  28  21 SE8       30.11F
SAFFORD        SUNNY     62  35  36 S5        30.10F
$$

AZZ020-021-025-026-031-102200-
SOUTHWEST ARIZONA

CITY           SKY/WX    TMP DP  RH WIND       PRES   REMARKS
YUMA           SUNNY     74  34  23 CALM      30.03F
$$

CAZ031-033-041-043-047-048-061-102200-
SOUTHERN CALIFORNIA

CITY           SKY/WX    TMP DP  RH WIND       PRES   REMARKS
DOWNTOWN L.A.  SUNNY     64  53  67 CALM      30.12F HAZE
L.A. AIRPORT   PTSUNNY   63  54  72 S3        30.13F HAZE
SAN DIEGO      PTSUNNY   66  54  65 NW7       30.14F
BURBANK        SUNNY     64  50  60 E5        30.12F
ONTARIO        PTSUNNY   62  48  60 SW7       30.12F
RIVERSIDE      SUNNY     63  52  67 W5        30.12F HAZE
PALM SPRINGS   MOSUNNY   72  43  35 E8        30.04
EL CENTRO NAS  MOSUNNY   72  33  24 CALM      30.05F
IMPERIAL       SUNNY     73  37  27 SE3       30.03F
BLYTHE         SUNNY     67  30  25 E7        30.05F
NEEDLES        MOSUNNY   65  22  19 CALM      30.06F
$$

NVZ020-UTZ003-102200-
SOUTHERN NEVADA-UTAH

CITY           SKY/WX    TMP DP  RH WIND       PRES   REMARKS
LAS VEGAS      MOSUNNY   57  19  22 CALM      30.05F
SALT LAKE CITY LGT RAIN  49  36  61 S18       29.85F
$$

NMZ009-TXZ055-102200-
NEW MEXICO-WEST TEXAS

CITY           SKY/WX    TMP DP  RH WIND       PRES   REMARKS
ALBUQUERQUE    CLOUDY    49  30  48 S6        30.11F
EL PASO        MOSUNNY   56  35  45 S9        30.14F
$$


........................KEY........................
SKY/WX - SKY CONDITION/WEATHER
TMP    - TEMPERATURE IN FAHRENHEIT
DP     - DEW POINT IN FAHRENHEIT
RH     - RELATIVE HUMIDITY IN PERCENT
WIND   - DIRECTION AND SPEED IN MILES PER HOUR (MPH)
VRB    - VARIABLE WIND DIRECTION
PRES   - MEAN SEA LEVEL PRESSURE IN INCHES OF MERCURY
         F - FALLING PRESSURE   R - RISING PRESSURE
         S - STEADY PRESSURE
VSB    - VISIBILITY IN MILES
HX     - HEAT INDEX IN FAHRENHEIT
WCI    - WIND CHILL INDEX IN FAHRENHEIT
TC     - TEMPERATURE IN CELSIUS WHICH IS ALSO KNOWN AS
         TEMPERATURE IN CENTIGRADE
AFB    - AIR FORCE BASE
         LUKE AFB IS LUKE AIR FORCE BASE
         DAVIS-MONTHAN IS DAVIS-MONTHAN AIR FORCE BASE
NAS    - NAVAL AIR STATION
         EL CENTRO NAS IS EL CENTRO NAVAL AIR STATION
N/A    - NOT AVAILABLE





USA.gov is the U.S. government's official web portal to all federal, state and local government web resources and services.